Tracking 18852 objects as of 24-Nov-2017
HD Live streaming from Space Station
objects crossing your sky now

FENGYUN 1C DEB

Track FENGYUN 1C DEB now!
10-day predictions


NORAD ID: 31186
Int'l Code: 1999-025BJQ
Perigee: 849.8 km
Apogee: 887.7 km
Inclination: 99.3 °
Period: 102.2 minutes
Semi major axis: 7239 km
RCS: 0.0179 m2 (small)
Launch date: May 10, 1999
Source: People's Republic of China (PRC)
Launch site: Taiyaun Space Center, China (TSC)

Note: This is SATELLITE DEBRIS
aabbcc
Your satellite tracking list
Your tracking list is empty




NASA's NSSDC Master Catalog

Two Line Element Set (TLE):
1 31186U 99025BJQ 17327.23458543  .00000133  00000-0  10320-3 0  9994
2 31186  99.2725 107.1397 0026133 339.6272 139.8681 14.09342369548677
Source of the keplerian elements: AFSPC